Location: Newark
(36.0797°N, 3.9744°E)
Time: 11:02:53
(UTC+00:00)

Tiros 1 despin weight - All Passes

Search period start: 15 December 2019 00:00
Search period end: 25 December 2019 00:00
Orbit: 594 x 642 km, 48.2° (Epoch: 14 December)

Date Brightness Start Highest point End Pass type
(mag) Time Alt. Az. Time Alt. Az. Time Alt. Az.
15 Dec - 01:08:16 10° S 01:11:42 21° SE 01:15:07 10° E night (unlit)
15 Dec - 02:48:22 10° WSW 02:52:57 67° NNW 02:57:28 10° NE night (unlit)
15 Dec - 04:31:34 10° WNW 04:35:07 22° NNW 04:38:38 10° NE visible
15 Dec - 06:14:51 10° NW 06:17:55 18° N 06:20:57 10° NE visible
15 Dec - 07:56:19 10° NW 08:00:27 36° NNE 08:04:31 10° E daylight
15 Dec - 09:37:49 10° WNW 09:42:03 45° SW 09:46:15 10° SSE daylight
16 Dec - 01:23:41 10° SSW 01:28:03 42° SE 01:32:22 10° ENE night (unlit)
16 Dec - 03:05:20 10° W 03:09:38 39° NNW 03:13:54 10° NE visible
16 Dec - 04:48:59 10° NW 04:52:08 18° N 04:55:16 10° NE visible
16 Dec - 06:31:31 10° NW 06:34:57 21° NNE 06:38:20 10° ENE daylight
16 Dec - 08:12:44 10° NW 08:17:10 61° NNE 08:21:32 10° ESE daylight
16 Dec - 09:55:01 10° W 09:58:23 21° SW 10:01:45 10° S daylight
17 Dec - 00:01:13 10° SSE 00:03:29 14° SE 00:05:45 10° E night (unlit)
17 Dec - 01:39:53 10° SW 01:44:31 85° SE 01:49:06 10° NE night (unlit)
17 Dec - 03:22:37 10° WNW 03:26:29 26° NNW 03:30:18 10° NE visible
17 Dec - 05:06:12 10° NW 05:09:13 17° N 05:12:12 10° NE visible
17 Dec - 06:47:59 10° NW 06:51:53 28° NNE 06:55:44 10° E daylight
17 Dec - 08:29:18 10° WNW 08:33:44 69° SW 08:38:07 10° SE daylight
18 Dec - 00:15:47 10° SSW 00:19:45 28° SE 00:23:41 10° ENE night (unlit)
18 Dec - 01:56:37 10° WSW 02:01:08 52° NNW 02:05:36 10° NE night (unlit)
18 Dec - 03:40:03 10° WNW 03:43:27 20° NNW 03:46:50 10° NE visible
18 Dec - 05:23:03 10° NW 05:26:16 19° N 05:29:28 10° NE visible
18 Dec - 07:04:24 10° NW 07:08:41 44° NNE 07:12:56 10° ESE daylight
18 Dec - 08:46:09 10° WNW 08:50:08 33° SW 08:54:06 10° SSE daylight
19 Dec - 00:31:35 10° SW 00:36:08 58° SE 00:40:38 10° ENE night (unlit)
19 Dec - 02:13:44 10° W 02:17:54 32° NNW 02:22:01 10° NE night (unlit)
19 Dec - 03:57:25 10° NW 04:00:30 18° N 04:03:34 10° NE visible
19 Dec - 05:39:37 10° NW 05:43:17 23° NNE 05:46:53 10° ENE visible
19 Dec - 07:20:51 10° NW 07:25:21 80° NNE 07:29:47 10° ESE daylight
19 Dec - 09:03:45 10° W 09:06:25 16° SW 09:09:04 10° SSW daylight
19 Dec - 23:08:14 10° S 23:11:29 19° SE 23:14:43 10° E night (unlit)
20 Dec - 00:48:01 10° WSW 00:52:40 74° NNW 00:57:16 10° NE night (unlit)
20 Dec - 02:31:06 10° WNW 02:34:48 23° NNW 02:38:27 10° NE night (unlit)
20 Dec - 04:14:29 10° NW 04:17:35 18° N 04:20:39 10° NE visible
20 Dec - 05:56:03 10° NW 06:00:10 33° NNE 06:04:13 10° E visible
20 Dec - 07:37:31 10° WNW 07:41:51 51° SW 07:46:08 10° SE daylight
20 Dec - 23:23:29 10° SSW 23:27:47 38° SE 23:32:04 10° ENE night (unlit)
21 Dec - 01:04:56 10° W 01:09:20 42° NNW 01:13:43 10° NE night (unlit)
21 Dec - 02:48:32 10° NW 02:51:48 19° N 02:55:03 10° NE night (unlit)
21 Dec - 04:31:12 10° NW 04:34:38 20° NNE 04:38:01 10° ENE visible
21 Dec - 06:12:28 10° NW 06:16:55 56° NNE 06:21:17 10° ESE visible
21 Dec - 07:54:35 10° W 07:58:12 24° SW 08:01:47 10° S daylight
21 Dec - 22:01:29 10° SSE 22:03:15 12° SE 22:05:02 10° ESE night (unlit)
21 Dec - 23:39:34 10° SW 23:44:14 77° SE 23:48:51 10° ENE night (unlit)
22 Dec - 01:22:10 10° W 01:26:10 28° NNW 01:30:07 10° NE night (unlit)
22 Dec - 03:05:47 10° NW 03:08:52 17° N 03:11:56 10° NE visible
22 Dec - 04:47:42 10° NW 04:51:35 27° NNE 04:55:25 10° E visible
22 Dec - 06:29:00 10° WNW 06:33:31 77° SW 06:37:56 10° SE daylight
22 Dec - 08:13:08 10° WSW 08:14:25 11° SW 08:15:42 10° SW daylight
22 Dec - 22:15:39 10° S 22:19:30 25° SE 22:23:19 10° ENE night (unlit)
22 Dec - 23:56:13 10° WSW 00:00:50 58° NNW 00:05:23 10° NE night (unlit)
23 Dec - 01:39:35 10° WNW 01:43:07 21° NNW 01:46:37 10° NE night (unlit)
23 Dec - 03:22:42 10° NW 03:25:57 19° N 03:29:09 10° NE visible
23 Dec - 05:04:07 10° NW 05:08:26 41° NNE 05:12:39 10° E visible
23 Dec - 06:45:48 10° WNW 06:49:56 37° SW 06:54:02 10° SSE daylight
23 Dec - 22:31:20 10° SW 22:35:51 52° SE 22:40:22 10° ENE night (unlit)
24 Dec - 00:13:18 10° W 00:17:34 35° NNW 00:21:48 10° NE night (unlit)
24 Dec - 01:56:58 10° NW 02:00:09 18° N 02:03:19 10° NE night (unlit)
24 Dec - 03:39:19 10° NW 03:42:58 23° NNE 03:46:34 10° ENE visible
24 Dec - 05:20:34 10° NW 05:25:06 73° NNE 05:29:34 10° ESE visible
24 Dec - 07:03:12 10° W 07:06:14 18° SW 07:09:14 10° S daylight
24 Dec - 21:08:15 10° S 21:11:14 17° SE 21:14:13 10° E night (unlit)
24 Dec - 22:47:40 10° WSW 22:52:21 82° NW 22:57:01 10° NE night (unlit)
